Regional Weather Roundup
Issued by NWS

Home | Current Version | Previous Version | Text Only | Print | Product List | Glossary Off
Versions: 1 2 3 4 5 6 7 8 9 10 11 12 13 14 15 16 17 18 19 20 21 22 23 24 25 26 27 28 29 30 31 32 33 34 35 36 37 38 39 40 41 42 43 44 45 46 47 48 49 50

000
ASUS44 KMEG 022210
RWRTN
TENNESSEE HOURLY STATE WEATHER ROUNDUP
NATIONAL WEATHER SERVICE MEMPHIS TN
400 PM CST MON MAR 02 2015

TNZ002-004-019-021-049-052-054-088>092-022300-
WEST TENNESSEE

CITY           SKY/WX    TMP DP  RH WIND       PRES   REMARKS
MEMPHIS INTL   CLOUDY    42  34  73 N6        30.34F
NWS MEMPHIS      N/A     41 N/A N/A MISG        N/A
JACKSON        CLOUDY    47  28  47 E6        30.32F
DYERSBURG      CLOUDY    43  19  39 N7        30.37S
UNION CITY     CLOUDY    37  23  56 NE9       30.35F WCI  31
PARIS          CLOUDY    43  25  49 NE9       30.35F
LEXINGTON      CLOUDY    48  27  43 E5        30.31F
SAVANNAH       CLOUDY    46  37  71 CALM      30.32F
$$

TNZ008-025-027-028-033-062-065-066-022300-
NORTH MIDDLE TENNESSEE

CITY           SKY/WX    TMP DP  RH WIND       PRES   REMARKS
NASHVILLE      MOSUNNY   49  29  46 E6        30.34F
CLARKSVILLE    SUNNY     44  25  47 NE8       30.37S
SMYRNA         SUNNY     49  31  50 NE8       30.34F
COOKEVILLE     SUNNY     46  32  57 VRB5      30.30F
CROSSVILLE     SUNNY     44  31  60 E9        30.30F
$$

TNZ061-075-076-078-094-096-097-022300-
SOUTH MIDDLE TENNESSEE

CITY           SKY/WX    TMP DP  RH WIND       PRES   REMARKS
FAYETTEVILLE   CLOUDY    46  37  71 N9          N/A
TULLAHOMA      MOSUNNY   43  36  75 N7        30.32S
WINCHESTER     CLOUDY    45  37  76 N7        30.31S
MCMINNVILLE    MOSUNNY   45  36  70 E3        30.32S
COLUMBIA         N/A     48  36  61 NE5       30.32S
SHELBYVILLE    SUNNY     46  36  66 CALM      30.34S
$$

TNZ017-018-042-046-047-022300-
NORTHEAST TENNESSEE

CITY           SKY/WX    TMP DP  RH WIND       PRES   REMARKS
TRI CITIES     PTSUNNY   48  26  42 CALM      30.32F
ELIZABETHTON   CLEAR     45  32  61 SW8       30.31S
$$

TNZ012-013-036-069-073-074-022300-
CENTRAL EAST TENNESSEE

CITY           SKY/WX    TMP DP  RH WIND       PRES   REMARKS
KNOXVILLE      CLOUDY    45  37  73 NE6       30.33F
OAK RIDGE      SUNNY     48  30  49 E8        30.35F
GATLINBURG     CLOUDY    43  37  81 E5        30.33F
MORRISTOWN     CLEAR     45  36  70 CALM      30.34S
$$

TNZ083-085-099-022300-
SOUTHEAST TENNESSEE

CITY           SKY/WX    TMP DP  RH WIND       PRES   REMARKS
CHATTANOOGA    MOSUNNY   54  39  57 N10       30.30S
$$

SKY/WX REPORTED AS FAIR MEANS FEW OR NO CLOUDS BELOW
12 THOUSAND FEET.



USA.gov is the U.S. government's official web portal to all federal, state and local government web resources and services.